[[{"header":{"parameterUnit":"m.s-1","parameterCategory":2,"la1":30.2992,"la2":30.254,"lo1":-89.0895,"lo2":-89.0443,"dy":0.0025,"dx":0.0025,"nx":19,"ny":19,"refTime":"2026-05-19T03:00:00:Z","depth":"0","parameterNumber":2,"parameterNumberName":"U-component_of_CURRENTS"},"data":[0,0,0,0.0114,0.0114,0.0142,0.0142,0.0174,0.0175,0,0,0,0,0,0,0,0,0,0,0,0.0101,0.0101,0.0113,0.0114,0.0142,0.0142,0.0174,0.0175,0,0,0,0,0,0,0,0,0,0,0,0.0101,0.0101,0.0101,0.0114,0.0142,0.0142,0.0174,0.0155,0,0,0,0,0,0,0,0,0,0,0.0129,0.0112,0.0101,0.0101,0.0114,0.0142,0.0142,0.0154,0.0156,0.016,0,0.016,0,0.0168,0.0176,0.0177,0,0,0,0.0117,0.011,0.0122,0.0101,0.0115,0.0142,0.013,0.0155,0.0158,0.0163,0.0161,0.0162,0.0169,0.0177,0.0177,0.0173,0.0173,0,0,0.0116,0.0103,0.012,0.0123,0.0117,0.0129,0.0131,0.0157,0.0154,0.0161,0.0163,0.0169,0.0177,0.0177,0.0174,0.0173,0,0,0,0.0109,0.0102,0.0113,0.0122,0.0127,0.013,0.0132,0.0153,0.0158,0.0163,0.017,0.0177,0.0177,0.0174,0.0173,0.0162,0,0,0,0.0108,0.0098,0.0113,0.0105,0.0126,0.014,0.0128,0.0156,0.0159,0.0169,0.0177,0.0178,0.0174,0.0174,0.0163,0.0184,0,0,0,0.0101,0.0097,0.01,0.0104,0.0116,0.014,0.0146,0.0157,0.0163,0.0177,0.0178,0.0174,0.0174,0.0163,0.0184,0.0339,0,0,0,0.0088,0.0068,0.0099,0.0078,0.0116,0.0111,0.0146,0.0144,0.015,0.0177,0.0174,0.0174,0.0164,0.0185,0.0337,0.0575,0.0605,0,0,0.0051,0.0063,0.005,0.0079,0.0066,0.0108,0.0101,0.0126,0.0145,0.0167,0.0167,0.0162,0.0184,0.0338,0.0541,0.0573,0,0,0,0.003,0.0026,0.0024,0.0029,0.0041,0.0073,0.0095,0.011,0.0135,0.0147,0.0154,0.0169,0.0267,0.0404,0.0429,0.0598,0.0171,0.0171,0.0171,-0.0016,-0.0006,-0.0015,0.0005,0.0008,0.0044,0.0069,0.0099,0.0108,0.0114,0.0151,0.0249,0.0388,0.0411,0.0578,0.0129,0.0129,0.0129,0.0129,-0.0037,-0.0016,-0.0015,-0.0014,0.0019,0.0028,0.0067,0.0084,0.0178,0.013,0.0228,0.0372,0.0439,0.0607,0.0128,0.0128,0.0128,0.0128,0.0128,-0.002,-0.0003,-0.0007,0.0015,0.0033,0.0055,0.0173,0.0176,0.0203,0.0256,0.0535,0.0537,0.0706,0.0357,0.0358,0.0359,0.0359,0.036,0.036,0.0032,0.0025,0.0052,0.0058,0.009,0.0163,0.0265,0.0385,0.0558,0.0577,0.0581,0.0774,0.0322,0.0336,0.0372,0.037,0.0368,0.0367,0.0366,0.0097,0.0093,0.0121,0.0154,0.0245,0.0354,0.0473,0.079,0.0931,0.1062,0.1182,0.0785,0.0849,0.0831,0.0859,0.1029,0.1029,0.1029,0.1029,0.0154,0.015,0.0196,0.0263,0.0378,0.0454,0.0765,0.1016,0.1355,0.153,0.1543,0.152,0.1486,0.1582,0.1547,0.1587,0.1938,0.1939,0.194,0.0211,0.0198,0.0247,0.0292,0.0418,0.0579,0.08,0.1127,0.1711,0.1982,0.1734,0.1695,0.1651,0.1584,0.1716,0.1654,0.171,0,0]},{"header":{"parameterUnit":"m.s-1","parameterCategory":2,"la1":30.2992,"la2":30.254,"lo1":-89.0895,"lo2":-89.0443,"dy":0.0025,"dx":0.0025,"nx":19,"ny":19,"refTime":"2026-05-19T03:00:00:Z","depth":"0","parameterNumber":3,"parameterNumberName":"V-component_of_CURRENTS"},"data":[0,0,0,-0.029,-0.029,-0.0297,-0.0297,-0.0312,-0.0312,0,0,0,0,0,0,0,0,0,0,0,-0.0288,-0.0288,-0.029,-0.029,-0.0297,-0.0297,-0.0312,-0.0312,0,0,0,0,0,0,0,0,0,0,0,-0.0288,-0.0288,-0.0288,-0.029,-0.0297,-0.0297,-0.0312,-0.0305,0,0,0,0,0,0,0,0,0,0,-0.0298,-0.0297,-0.0288,-0.0288,-0.029,-0.0297,-0.0297,-0.0305,-0.0305,-0.031,0,-0.0311,0,-0.0312,-0.0313,-0.0313,0,0,0,-0.029,-0.0297,-0.0296,-0.0288,-0.029,-0.0297,-0.0294,-0.0305,-0.0306,-0.0311,-0.0311,-0.0312,-0.0312,-0.0313,-0.0313,-0.034,-0.034,0,0,-0.029,-0.0292,-0.0295,-0.0296,-0.0292,-0.0294,-0.0294,-0.0305,-0.0308,-0.0312,-0.0312,-0.0313,-0.0313,-0.0313,-0.0339,-0.034,0,0,0,-0.0289,-0.0292,-0.029,-0.0296,-0.0297,-0.0294,-0.0294,-0.0308,-0.0307,-0.0312,-0.0313,-0.0313,-0.0313,-0.0339,-0.0339,-0.0337,0,0,0,-0.0288,-0.0291,-0.029,-0.0292,-0.0296,-0.0302,-0.0297,-0.0306,-0.0307,-0.0313,-0.0313,-0.0314,-0.0339,-0.0339,-0.0336,-0.0254,0,0,0,-0.0287,-0.0291,-0.0291,-0.0292,-0.0294,-0.0302,-0.0302,-0.0306,-0.0307,-0.0313,-0.0314,-0.0339,-0.0339,-0.0336,-0.0256,-0.0089,0,0,0,-0.029,-0.0293,-0.0291,-0.0295,-0.0294,-0.0299,-0.0302,-0.0307,-0.0312,-0.0313,-0.0339,-0.0339,-0.0336,-0.0258,-0.0093,0.0119,0.0155,0,0,-0.0294,-0.0293,-0.0295,-0.0294,-0.0298,-0.0299,-0.031,-0.0316,-0.0321,-0.0335,-0.0336,-0.0337,-0.0256,-0.009,0.0095,0.0133,0,0,0,-0.0297,-0.0299,-0.03,-0.0303,-0.0304,-0.0298,-0.0316,-0.0324,-0.0337,-0.0325,-0.0346,-0.0293,-0.0188,-0.007,-0.0042,-0.014,-0.0341,-0.0341,-0.0341,-0.0297,-0.03,-0.0302,-0.0305,-0.0304,-0.0307,-0.0301,-0.0315,-0.0343,-0.0352,-0.0302,-0.0179,-0.0063,-0.0037,-0.0146,-0.0357,-0.0357,-0.0357,-0.0357,-0.0297,-0.0293,-0.0295,-0.0297,-0.0289,-0.0286,-0.028,-0.0292,-0.0223,-0.0306,-0.0205,-0.0088,-0.0004,-0.0132,-0.0357,-0.0357,-0.0357,-0.0357,-0.0357,-0.0293,-0.0289,-0.0294,-0.0273,-0.0228,-0.0211,-0.0037,-0.0079,-0.0142,-0.009,0.0155,0.0157,0.007,-0.0003,-0.0002,-0.0001,0.0,0.0001,0.0002,-0.0276,-0.0282,-0.0234,-0.0213,-0.0123,0.003,0.0158,0.0262,0.033,0.0257,0.0259,0.011,-0.0067,-0.0053,0.0018,0.0015,0.0013,0.0011,0.001,-0.0247,-0.0244,-0.0137,-0.0051,0.0188,0.0451,0.0569,0.0814,0.0857,0.0912,0.0534,0.0457,0.0525,0.0502,0.0531,0.0751,0.0751,0.0751,0.0751,-0.0207,-0.021,0.0027,0.025,0.0496,0.0687,0.1108,0.1236,0.1065,0.0935,0.0773,0.0649,0.0624,0.0686,0.0659,0.0686,0.0939,0.0939,0.0939,-0.0157,-0.0078,0.0154,0.037,0.0665,0.096,0.1333,0.1481,0.1175,0.0922,0.0592,0.0584,0.0361,0.033,0.0385,0.0356,0.0386,0,0]}],[{"header":{"parameterUnit":"m.s-1","parameterCategory":2,"la1":30.2992,"la2":30.254,"lo1":-89.0895,"lo2":-89.0443,"dy":0.0025,"dx":0.0025,"nx":19,"ny":19,"refTime":"2026-05-19T03:00:00:Z","depth":"2","parameterNumber":2,"parameterNumberName":"U-component_of_CURRENTS"},"data":[0,0,0,0.0284,0.0284,0.0312,0.0312,0.0338,0.0338,0,0,0,0,0,0,0,0,0,0,0,0.0272,0.0272,0.0284,0.0284,0.0312,0.0312,0.0338,0.0338,0,0,0,0,0,0,0,0,0,0,0,0.0272,0.0272,0.0272,0.0284,0.0312,0.0312,0.0338,0.032,0,0,0,0,0,0,0,0,0,0,0.0294,0.0279,0.0272,0.0272,0.0285,0.0312,0.0312,0.0319,0.0321,0.0323,0,0.0326,0,0.0334,0.034,0.034,0,0,0,0.0285,0.0278,0.029,0.0272,0.0285,0.0311,0.0299,0.032,0.0322,0.0326,0.0326,0.0328,0.0334,0.034,0.034,0.0355,0.0355,0,0,0.0283,0.0272,0.0289,0.0292,0.029,0.0299,0.03,0.0322,0.032,0.0327,0.0328,0.0335,0.034,0.034,0.0355,0.0355,0,0,0,0.0279,0.0271,0.0283,0.029,0.0297,0.0299,0.0301,0.0319,0.0324,0.0329,0.0335,0.034,0.0341,0.0355,0.0355,0.0343,0,0,0,0.0278,0.0269,0.0282,0.0276,0.0296,0.0308,0.0298,0.0322,0.0325,0.0335,0.034,0.0341,0.0355,0.0355,0.0343,0.0349,0,0,0,0.0271,0.0268,0.0271,0.0275,0.0288,0.0308,0.0314,0.0323,0.0329,0.034,0.0341,0.0355,0.0355,0.0344,0.0349,0.0497,0,0,0,0.0258,0.0246,0.0271,0.0261,0.0287,0.0295,0.0314,0.0316,0.0321,0.0341,0.0355,0.0355,0.0344,0.0349,0.0495,0.066,0.0684,0,0,0.0233,0.0243,0.0237,0.026,0.0263,0.0291,0.0295,0.0309,0.0324,0.0347,0.0348,0.0343,0.0349,0.0496,0.0657,0.0683,0,0,0,0.0223,0.0221,0.0224,0.0235,0.0252,0.0277,0.0293,0.0307,0.0329,0.0329,0.0346,0.035,0.0445,0.0538,0.0557,0.0354,0.0354,0.0354,0.0354,0.0185,0.02,0.0197,0.0219,0.0228,0.0263,0.0285,0.0312,0.0317,0.0326,0.0342,0.0444,0.0539,0.0557,0.0338,0.0338,0.0338,0.0338,0.0338,0.0171,0.0188,0.0192,0.0198,0.0228,0.0242,0.0285,0.0301,0.0385,0.0338,0.0432,0.052,0.0578,0.0337,0.0337,0.0338,0.0338,0.0338,0.0338,0.0181,0.0194,0.0189,0.0215,0.0234,0.0261,0.0382,0.0382,0.04,0.0447,0.0668,0.067,0.0498,0.0541,0.0542,0.0543,0.0543,0.0544,0.0544,0.0218,0.021,0.0242,0.0252,0.0296,0.0373,0.0468,0.0579,0.0701,0.0694,0.0697,0.0516,0.0509,0.0513,0.0554,0.0552,0.0551,0.055,0.0549,0.0274,0.0273,0.0325,0.037,0.0482,0.0635,0.0705,0.0943,0.1046,0.1134,0.0878,0.0866,0.0918,0.0903,0.0918,0.1062,0.1062,0.1062,0.1062,0.0329,0.0326,0.0421,0.0521,0.0665,0.077,0.1053,0.119,0.123,0.1172,0.1166,0.1102,0.1082,0.1136,0.1116,0.1133,0.1333,0.1333,0.1333,0.039,0.0405,0.0494,0.0571,0.0743,0.0944,0.1163,0.1261,0.1269,0.1331,0.1085,0.1106,0.0993,0.0967,0.1033,0.1007,0.1027,0,0]},{"header":{"parameterUnit":"m.s-1","parameterCategory":2,"la1":30.2992,"la2":30.254,"lo1":-89.0895,"lo2":-89.0443,"dy":0.0025,"dx":0.0025,"nx":19,"ny":19,"refTime":"2026-05-19T03:00:00:Z","depth":"2","parameterNumber":3,"parameterNumberName":"V-component_of_CURRENTS"},"data":[0,0,0,-0.0313,-0.0313,-0.0328,-0.0328,-0.0354,-0.0355,0,0,0,0,0,0,0,0,0,0,0,-0.0308,-0.0308,-0.0313,-0.0313,-0.0328,-0.0328,-0.0354,-0.0355,0,0,0,0,0,0,0,0,0,0,0,-0.0308,-0.0308,-0.0308,-0.0313,-0.0328,-0.0328,-0.0354,-0.0341,0,0,0,0,0,0,0,0,0,0,-0.0326,-0.0322,-0.0308,-0.0308,-0.0314,-0.0328,-0.0328,-0.0341,-0.0342,-0.0349,0,-0.0351,0,-0.0353,-0.0356,-0.0356,0,0,0,-0.0314,-0.0321,-0.0323,-0.0308,-0.0314,-0.0328,-0.0322,-0.0341,-0.0343,-0.0351,-0.0351,-0.0352,-0.0354,-0.0356,-0.0357,-0.0376,-0.0376,0,0,-0.0313,-0.0313,-0.0322,-0.0324,-0.0317,-0.0321,-0.0322,-0.0342,-0.0346,-0.0352,-0.0353,-0.0354,-0.0357,-0.0357,-0.0376,-0.0376,0,0,0,-0.031,-0.0313,-0.0314,-0.0323,-0.0325,-0.0322,-0.0323,-0.0345,-0.0345,-0.0353,-0.0355,-0.0357,-0.0357,-0.0376,-0.0376,-0.036,0,0,0,-0.031,-0.0311,-0.0314,-0.0314,-0.0325,-0.0335,-0.0325,-0.0343,-0.0345,-0.0354,-0.0357,-0.0357,-0.0376,-0.0376,-0.0361,-0.0307,0,0,0,-0.0307,-0.0311,-0.0312,-0.0314,-0.032,-0.0334,-0.0336,-0.0344,-0.0346,-0.0356,-0.0357,-0.0376,-0.0376,-0.0361,-0.0309,-0.0201,0,0,0,-0.0307,-0.031,-0.0312,-0.0314,-0.032,-0.0323,-0.0335,-0.0344,-0.0352,-0.0357,-0.0376,-0.0376,-0.0361,-0.031,-0.0204,-0.0344,-0.0341,0,0,-0.0309,-0.031,-0.031,-0.0313,-0.0312,-0.0321,-0.0325,-0.0342,-0.0355,-0.037,-0.0371,-0.036,-0.0309,-0.0202,-0.0346,-0.0343,0,0,0,-0.031,-0.0311,-0.0312,-0.0312,-0.0314,-0.031,-0.033,-0.034,-0.0355,-0.036,-0.0366,-0.0333,-0.0265,-0.0357,-0.0355,-0.0377,-0.0377,-0.0377,-0.0377,-0.0305,-0.0305,-0.0304,-0.0304,-0.0304,-0.0308,-0.0306,-0.0322,-0.0349,-0.0354,-0.0326,-0.0237,-0.0341,-0.034,-0.0358,-0.0358,-0.0358,-0.0358,-0.0358,-0.03,-0.0297,-0.0294,-0.0294,-0.0286,-0.0283,-0.0281,-0.0293,-0.0253,-0.0313,-0.0249,-0.0345,-0.0336,-0.0357,-0.0357,-0.0357,-0.0357,-0.0357,-0.0357,-0.0297,-0.0294,-0.0296,-0.0279,-0.025,-0.0238,-0.0167,-0.0157,-0.0194,-0.0159,-0.0196,-0.0199,-0.0168,-0.0106,-0.0105,-0.0104,-0.0104,-0.0103,-0.0103,-0.0288,-0.029,-0.0263,-0.0245,-0.0203,-0.0131,-0.0058,-0.0045,-0.0077,-0.0145,-0.0147,-0.0149,-0.0158,-0.0151,-0.0092,-0.0094,-0.0095,-0.0096,-0.0097,-0.0269,-0.0271,-0.0216,-0.0176,-0.0075,-0.0004,0.0023,-0.0029,0.0005,-0.0064,-0.0136,-0.0139,-0.013,-0.0136,-0.0128,-0.0065,-0.0065,-0.0065,-0.0065,-0.0247,-0.0248,-0.0125,-0.0026,0.0057,0.0079,0.0039,0.0003,-0.0052,-0.0048,-0.0047,-0.0175,-0.018,-0.0178,-0.0183,-0.0178,-0.0126,-0.0126,-0.0125,-0.0211,-0.0183,-0.0053,0.0038,0.0144,0.012,0.0056,0.0038,0.0005,-0.0115,0.0078,-0.0095,-0.0295,-0.0297,-0.0306,-0.0309,-0.0306,0,0]}],[{"header":{"parameterUnit":"m.s-1","parameterCategory":2,"la1":30.2992,"la2":30.254,"lo1":-89.0895,"lo2":-89.0443,"dy":0.0025,"dx":0.0025,"nx":19,"ny":19,"refTime":"2026-05-19T03:00:00:Z","depth":"4","parameterNumber":2,"parameterNumberName":"U-component_of_CURRENTS"},"data":[0,0,0,0.0544,0.0545,0.0559,0.0559,0.061,0.0611,0,0,0,0,0,0,0,0,0,0,0,0.0542,0.0542,0.0544,0.0545,0.0559,0.0559,0.061,0.0611,0,0,0,0,0,0,0,0,0,0,0,0.0541,0.0542,0.0542,0.0545,0.0559,0.0559,0.061,0.0589,0,0,0,0,0,0,0,0,0,0,0.057,0.0572,0.0542,0.0542,0.0545,0.0559,0.0559,0.0588,0.059,0.0615,0,0.0624,0,0.0622,0.0615,0.0616,0,0,0,0.0538,0.0569,0.0569,0.0542,0.0545,0.0559,0.0551,0.0589,0.0592,0.0618,0.0625,0.0626,0.0623,0.0616,0.0616,0.07,0.07,0,0,0.0537,0.0548,0.0567,0.0571,0.0559,0.055,0.0551,0.059,0.0602,0.0625,0.0627,0.0624,0.0616,0.0617,0.07,0.07,0,0,0,0.0539,0.0548,0.0545,0.0569,0.0571,0.0551,0.0552,0.06,0.0598,0.0628,0.0624,0.0617,0.0617,0.0699,0.07,0.0708,0,0,0,0.0539,0.0549,0.0545,0.0552,0.0571,0.0583,0.0561,0.0595,0.06,0.0624,0.0617,0.0618,0.0699,0.0699,0.0707,0.0695,0,0,0,0.0539,0.0549,0.0553,0.0553,0.0561,0.0582,0.0582,0.0596,0.0598,0.0616,0.0618,0.0698,0.0699,0.0706,0.0694,0.0772,0,0,0,0.0546,0.0554,0.0553,0.0566,0.0561,0.0584,0.0582,0.06,0.0615,0.0617,0.0699,0.07,0.0706,0.0693,0.077,0.0696,0,0,0,0.0554,0.0555,0.0561,0.0561,0.0582,0.0581,0.0617,0.0631,0.0639,0.0686,0.0688,0.0707,0.0693,0.0771,0.0751,0,0,0,0,0.0562,0.0567,0.0576,0.0589,0.0605,0.063,0.0644,0.0665,0.0696,0.0654,0.0724,0.0715,0.0764,0.0716,0.0704,0.0704,0.0704,0.0704,0.0704,0.0559,0.0569,0.0584,0.0604,0.0629,0.0666,0.0692,0.0724,0.0727,0.0747,0.0735,0.0812,0.0761,0.0758,0.0758,0.0758,0.0758,0.0758,0.0758,0.0561,0.0563,0.0589,0.0603,0.0636,0.0663,0.0736,0.0747,0.0806,0.0777,0.0827,0.0741,0.0759,0.0759,0.0759,0.0759,0.0759,0.0759,0.0759,0.0553,0.0555,0.0564,0.0595,0.0624,0.0664,0.0742,0.0777,0.0807,0.0833,0.0829,0.0839,0.0827,0.0875,0.0876,0.0876,0.0876,0.0877,0.0877,0.0529,0.0546,0.0568,0.0597,0.0618,0.0666,0.0758,0.0806,0.0845,0.0829,0.0845,0.0853,0.0849,0.0835,0.0881,0.088,0.088,0.0879,0.0879,0.0515,0.053,0.0584,0.0611,0.0664,0.0697,0.0793,0.0848,0.0913,0.0914,0.0857,0.0857,0.0858,0.0854,0.084,0.089,0.0889,0.0888,0,0.0502,0.0512,0.0603,0.0663,0.07,0.0727,0.0785,0.0836,0.0857,0.0824,0.0911,0.0845,0.0844,0.0841,0.0837,0.0819,0,0,0,0.0494,0.0538,0.0601,0.0667,0.0704,0.0727,0.0791,0.0797,0.0839,0.0869,0.087,0.0874,0.0893,0.0895,0.0896,0.0891,0.0871,0,0]},{"header":{"parameterUnit":"m.s-1","parameterCategory":2,"la1":30.2992,"la2":30.254,"lo1":-89.0895,"lo2":-89.0443,"dy":0.0025,"dx":0.0025,"nx":19,"ny":19,"refTime":"2026-05-19T03:00:00:Z","depth":"4","parameterNumber":3,"parameterNumberName":"V-component_of_CURRENTS"},"data":[0,0,0,-0.0038,-0.0041,-0.0168,-0.0168,-0.0216,-0.0216,0,0,0,0,0,0,0,0,0,0,0,-0.0002,-0.0003,-0.0038,-0.0041,-0.0168,-0.0168,-0.0216,-0.0216,0,0,0,0,0,0,0,0,0,0,0,-0.0001,-0.0003,-0.0004,-0.0041,-0.0168,-0.0168,-0.0216,-0.0147,0,0,0,0,0,0,0,0,0,0,-0.0038,-0.0014,-0.0002,-0.0005,-0.0042,-0.0168,-0.0168,-0.0145,-0.0152,-0.0128,0,-0.0166,0,-0.0189,-0.0218,-0.0218,0,0,0,-0.0035,-0.0009,-0.0053,-0.0005,-0.0044,-0.0168,-0.0109,-0.015,-0.0157,-0.0136,-0.0167,-0.0169,-0.019,-0.0218,-0.0218,-0.0187,-0.0187,0,0,-0.0028,-0.0009,-0.0048,-0.0058,-0.0098,-0.0105,-0.0113,-0.0155,-0.0163,-0.0167,-0.0171,-0.0191,-0.0218,-0.0218,-0.0188,-0.0187,0,0,0,-0.0012,-0.0004,-0.0049,-0.0055,-0.0086,-0.0109,-0.0118,-0.0161,-0.018,-0.0172,-0.0191,-0.0218,-0.0218,-0.0188,-0.0187,-0.0136,0,0,0,-0.0007,0.0005,-0.0046,-0.0034,-0.0087,-0.0138,-0.0122,-0.0177,-0.0183,-0.0191,-0.0218,-0.0218,-0.0189,-0.0188,-0.0138,-0.0143,0,0,0,0.0008,0.0007,-0.0017,-0.0033,-0.0091,-0.0139,-0.016,-0.018,-0.0194,-0.0218,-0.0218,-0.0189,-0.0188,-0.0141,-0.0146,-0.0215,0,0,0,0.0047,0.0014,-0.0017,-0.0042,-0.009,-0.0109,-0.016,-0.0183,-0.02,-0.0218,-0.0189,-0.0187,-0.0141,-0.0148,-0.0216,-0.0144,0,0,0,0.0035,0.0013,0.0005,-0.0026,-0.0032,-0.009,-0.0074,-0.0132,-0.0171,-0.0167,-0.0167,-0.0138,-0.0146,-0.0216,-0.0079,0,0,0,0,0.0023,0.0012,0.0008,-0.0009,-0.0029,-0.0035,-0.0083,-0.0092,-0.0119,-0.018,-0.013,-0.0137,-0.0183,-0.014,-0.0182,-0.0182,-0.0182,-0.0182,-0.0183,0.0019,0.0023,0.0025,0.0026,0.0027,0.0008,-0.0,-0.0024,-0.0059,-0.0059,-0.0088,-0.0097,-0.0042,-0.0066,-0.0066,-0.0066,-0.0065,-0.0065,-0.0065,0.0021,0.0025,0.0046,0.0042,0.0054,0.0055,0.0067,0.0038,-0.0007,-0.0013,-0.0061,-0.0076,-0.006,-0.0061,-0.0062,-0.0062,-0.0063,-0.0063,-0.0063,0.0022,0.0028,0.0019,0.0026,0.0027,0.0034,0.0018,-0.0001,-0.0,-0.0022,-0.0069,-0.01,-0.0119,-0.0087,-0.0087,-0.0087,-0.0088,-0.0088,-0.0088,0.0019,0.0023,-0.0008,-0.0008,-0.0035,-0.0055,-0.0062,-0.0066,-0.0078,-0.0032,-0.006,-0.0106,-0.0106,-0.0123,-0.0092,-0.0092,-0.0091,-0.0091,-0.009,0.0013,-0.0008,-0.0052,-0.0088,-0.0116,-0.0112,-0.0136,-0.009,-0.0113,-0.0088,-0.0048,-0.0049,-0.0089,-0.009,-0.0108,-0.0072,-0.0071,-0.0071,0,-0.0009,-0.0013,-0.0088,-0.0136,-0.0134,-0.0131,-0.0078,-0.0065,-0.006,-0.0039,-0.0127,-0.0085,-0.0084,-0.013,-0.013,-0.0151,0,0,0,-0.003,-0.0058,-0.0113,-0.0145,-0.0132,-0.006,-0.0049,-0.0018,-0.0064,-0.0024,-0.0047,-0.0053,-0.0075,-0.0105,-0.0171,-0.017,-0.0203,0,0]}]]